Wind_Speed
27 28 29 27 27 20 15 13 11 9 7 7 6 6 5 6 6 7 11 3 8 9 9 8 9 10 9 12 5 8 7 3 5 7 10 8 7 8 1 3 3 6 10 14 25
28 29 32 30 29 20 15 13 12 10 8 6 6 6 5 5 8 15 11 11 11 13 10 11 9 9 12 7 4 11 9 3 4 7 7 8 5 3 4 6 12 8 9 22 25
29 30 33 32 31 21 17 17 14 13 12 10 9 6 5 5 9 5 12 15 12 16 11 10 6 9 11 6 5 6 9 10 4 2 8 11 10 8 5 6 11 7 15 18 21
30 31 35 33 33 22 23 17 13 10 11 11 8 6 8 4 1 5 4 13 15 16 11 10 10 12 9 7 3 9 9 5 9 9 10 12 11 9 10 12 7 5 8 18 18
31 32 36 33 33 22 21 14 12 7 0 5 8 10 5 8 4 1 9 14 18 13 14 11 9 11 11 7 6 11 10 7 10 12 12 12 12 11 10 6 2 4 6 17 17
32 33 36 35 34 22 18 13 10 7 5 7 9 11 6 8 4 8 13 17 15 15 14 11 8 6 11 9 10 13 11 12 12 4 4 6 6 5 1 5 5 2 5 16 16
32 34 36 34 34 21 15 9 7 7 6 6 8 5 10 7 6 10 14 14 11 14 9 10 7 10 5 11 5 10 12 8 3 1 3 6 6 7 2 2 4 3 6 5 18
33 34 37 34 34 18 13 6 4 5 4 4 4 6 4 4 8 12 12 9 8 8 7 4 9 13 10 9 12 13 13 10 11 6 4 12 11 9 3 3 3 0 3 4 10
33 35 37 34 32 16 11 3 2 2 2 1 5 9 8 9 12 12 10 9 9 7 5 5 11 13 8 12 13 7 5 4 4 2 5 4 9 10 6 3 3 5 2 5 8
33 35 36 32 27 14 9 3 4 1 3 5 11 8 9 12 12 13 9 5 7 6 7 9 8 11 11 11 8 10 9 3 3 4 6 6 7 7 3 1 6 7 2 5 6
33 35 36 29 22 12 7 3 5 6 12 9 7 4 11 11 10 10 13 10 10 9 12 10 10 12 3 9 8 6 7 6 3 3 10 4 3 5 3 6 9 8 6 6 6
33 35 35 28 15 7 10 4 6 6 6 4 4 4 3 9 9 10 15 12 9 12 6 7 12 9 3 6 8 9 8 8 3 1 7 4 3 3 3 5 7 11 10 11 11
33 35 35 28 7 4 4 6 6 5 7 7 9 11 13 11 10 14 15 12 10 9 9 13 12 3 6 8 9 12 9 7 8 3 12 7 13 9 11 7 9 12 11 12 11
34 33 34 25 5 5 2 5 7 2 6 10 12 7 8 10 6 14 18 6 5 7 4 8 8 5 8 7 6 13 5 6 9 10 9 3 1 12 9 9 8 9 11 11 11
32 32 30 12 12 4 5 8 5 5 6 16 12 13 13 12 14 11 13 7 12 7 9 7 6 6 9 5 8 7 6 6 9 11 12 12 7 11 10 7 7 11 8 9 8
31 31 25 4 6 5 7 9 5 7 3 9 9 13 15 13 11 12 10 10 6 8 10 12 3 6 8 2 5 7 10 14 13 13 12 10 4 5 8 7 8 8 7 5 6
30 27 15 8 6 8 8 7 7 9 7 10 15 15 18 11 13 12 15 14 12 10 14 14 12 6 7 9 9 11 16 10 8 10 3 8 5 7 9 7 6 8 3 4 2
30 19 8 10 8 9 9 8 9 4 7 3 4 12 14 11 11 11 12 13 10 9 11 7 10 11 6 7 9 6 8 7 11 10 12 6 6 5 8 7 7 4 4 2 3
28 10 8 7 6 6 7 10 10 6 3 7 10 12 15 9 7 11 14 12 5 5 10 9 8 7 2 2 5 4 8 9 10 17 12 11 5 9 10 6 6 1 3 4 6
18 13 13 5 5 9 7 15 2 5 3 7 12 13 15 14 13 11 11 5 5 7 7 3 10 12 10 5 10 10 11 10 9 6 10 6 4 8 9 6 3 4 7 7 9
9 5 9 5 7 7 10 8 4 4 5 8 13 6 14 6 9 12 6 8 5 6 8 11 6 4 5 12 13 8 11 6 9 8 11 10 4 8 3 3 3 9 12 14 11
8 7 6 6 8 8 11 5 4 6 8 7 8 9 9 6 8 9 6 3 7 7 8 4 6 10 13 8 1 10 15 16 10 10 9 11 11 9 7 5 8 10 9 10 10
5 8 4 9 8 9 4 6 8 6 7 7 8 7 8 6 7 8 5 10 3 8 6 5 7 10 15 17 12 5 9 8 9 8 14 12 10 4 1 6 9 12 10 7 11
5 4 6 7 10 11 7 12 10 5 3 5 6 2 8 12 7 4 9 7 2 3 8 4 11 12 13 16 12 7 9 10 12 11 13 13 17 15 15 15 12 12 11 10 11
5 3 6 3 8 9 4 2 12 8 10 7 8 12 10 10 12 11 10 11 9 7 6 6 11 12 14 14 14 17 16 16 17 18 18 19 21 19 13 10 9 10 11 11 13
5 4 1 9 4 7 7 11 12 10 4 10 11 9 6 10 9 7 10 9 9 13 10 10 10 11 15 16 17 20 20 20 21 21 21 21 21 8 4 5 8 11 12 12 15
10 9 5 1 9 10 10 11 10 6 6 9 5 2 10 4 3 8 9 8 7 7 8 9 9 10 16 16 16 16 17 17 20 18 16 16 10 12 10 12 12 13 14 13 14
Wind_Direction
10 9 5 2 357 350 341 332 319 305 291 275 270 273 253 240 248 241 239 199 209 224 173 201 223 227 232 257 237 240 265 100 10 342 20 8 3 50 137 354 107 10 60 118 144
8 7 5 2 359 352 345 331 319 307 292 263 266 284 251 234 246 241 232 237 234 199 197 196 205 210 233 259 235 265 286 71 64 324 311 325 347 346 317 323 56 125 104 122 152
6 6 4 1 358 352 342 323 306 286 275 266 272 271 205 180 255 170 195 229 206 189 209 216 253 235 262 264 236 289 299 13 281 340 320 315 306 343 320 295 8 41 133 143 162
5 4 2 1 358 351 343 335 327 301 264 254 249 197 173 202 305 87 182 184 176 181 218 226 236 233 255 235 236 274 283 297 303 321 298 284 293 295 300 327 314 58 142 154 170
3 2 2 360 358 352 353 356 5 9 332 171 165 163 155 212 52 347 167 163 161 193 204 216 228 252 269 305 306 254 282 318 292 292 290 283 270 278 294 290 277 15 157 160 178
0 360 1 359 357 353 358 0 15 44 98 135 156 167 249 240 87 124 147 157 176 196 203 223 253 285 293 286 282 321 310 291 274 350 309 290 266 215 110 355 283 284 166 176 178
357 357 358 357 354 354 357 7 31 59 92 130 160 182 253 71 132 145 152 170 180 198 213 231 274 254 308 258 294 285 276 252 137 72 325 312 208 102 308 234 224 221 144 171 162
355 354 354 355 352 350 354 9 37 50 79 128 192 240 52 134 150 157 168 179 193 226 274 274 240 264 278 302 268 247 247 236 123 300 95 292 127 139 7 294 281 357 100 159 179
352 351 350 352 349 345 349 358 26 44 69 199 229 230 124 140 175 179 180 186 182 208 232 263 235 245 250 244 237 194 269 17 106 137 312 278 344 50 333 274 310 278 45 118 154
350 348 347 348 347 341 342 264 277 278 279 248 268 257 164 200 176 181 196 211 193 182 187 221 225 237 213 241 346 3 334 29 312 57 308 261 357 61 354 244 64 35 357 140 163
346 346 344 345 343 340 337 244 207 194 219 306 136 340 136 123 155 194 193 205 218 213 229 210 237 227 41 12 340 319 293 288 109 59 281 60 346 74 67 69 81 65 68 71 118
344 344 343 341 336 334 303 317 35 340 256 200 215 257 177 180 180 172 179 206 205 227 201 199 236 56 339 303 286 276 271 258 180 148 270 288 221 114 118 87 69 91 64 93 111
343 343 341 338 321 291 354 27 336 310 256 144 192 181 178 201 194 174 195 226 221 230 215 273 63 49 269 280 256 250 272 331 319 317 243 261 233 178 146 165 129 108 93 75 78
342 343 341 338 285 344 198 337 322 277 258 141 177 171 179 228 203 159 201 234 216 258 214 242 83 281 274 262 293 276 62 290 278 276 301 186 84 185 143 161 178 126 114 98 101
338 341 336 340 308 273 355 326 317 232 251 150 144 137 171 214 125 193 196 208 266 184 250 106 225 246 273 22 299 34 326 299 293 276 273 256 242 121 185 173 162 110 89 95 91
334 338 331 323 248 308 313 309 251 230 219 155 150 184 185 211 188 144 193 234 309 268 232 280 114 266 312 124 275 329 272 245 242 248 248 229 304 284 60 71 123 114 106 98 100
329 331 312 290 329 321 311 250 230 251 139 150 180 177 198 182 174 184 197 198 228 213 223 216 217 160 260 237 203 245 261 276 230 233 265 114 279 299 89 81 25 86 117 100 90
328 322 281 250 286 305 279 240 252 304 174 88 190 201 212 168 192 201 219 228 214 281 286 248 187 189 149 275 338 315 325 304 303 298 313 336 252 115 67 104 123 152 185 234 56
332 306 249 219 264 282 262 231 234 255 69 209 193 215 212 178 276 213 223 236 121 222 272 307 235 129 198 229 260 170 255 0 306 265 247 256 186 159 132 167 183 297 15 20 18
327 288 248 207 241 258 246 253 332 341 297 268 227 214 219 199 201 210 193 201 192 266 270 0 282 198 148 238 222 269 333 280 234 267 278 297 314 248 162 186 160 296 341 335 332
288 257 122 208 229 238 240 246 177 178 251 250 246 246 255 214 219 229 226 126 237 172 277 288 240 239 149 233 245 187 236 204 277 310 298 293 301 70 3 282 351 325 320 347 328
286 244 120 202 226 229 249 197 14 200 216 242 287 277 242 218 230 254 238 244 107 296 254 58 285 271 262 129 263 275 280 281 282 290 296 308 284 15 34 325 299 292 328 323 327
282 289 169 232 242 214 153 216 231 204 221 211 235 248 240 255 243 257 231 89 157 252 12 338 245 263 238 237 193 245 265 246 274 281 265 275 279 333 98 243 331 329 303 323 315
276 250 191 215 267 285 160 218 195 243 220 269 278 244 228 240 212 247 240 136 201 301 50 309 268 265 285 321 320 276 252 252 264 272 283 277 296 301 305 316 328 317 334 317 303
240 265 12 188 205 236 270 282 222 175 243 222 211 239 223 227 220 222 231 150 193 132 234 251 270 278 279 288 284 287 280 276 273 276 274 290 296 298 324 4 344 319 287 296 311
300 302 242 287 243 246 163 227 245 195 204 204 253 202 235 253 245 247 230 228 246 168 228 244 267 282 278 278 282 277 274 272 272 276 274 278 279 302 7 293 284 298 308 321 306
7 263 273 198 224 237 232 231 229 263 171 298 231 215 231 327 26 338 319 311 287 294 266 251 274 281 278 294 291 275 265 266 266 258 270 277 298 342 337 343 328 321 318 306 317
Height
797 793 789 784 779 774 771 768 766 765 764 763 763 764 764 764 764 764 759 755 755 755 756 756 756 752 749 739 737 731 745 750 751 747 741 719 727 715 715 718 717 719 722 726 745
797 792 788 783 778 773 769 767 764 763 762 762 762 762 763 763 764 758 753 753 754 755 756 754 750 747 742 736 732 737 739 740 732 731 740 726 726 723 723 722 719 718 727 734 747
797 792 787 781 776 771 768 764 762 760 759 760 760 761 761 762 759 742 748 751 752 754 753 751 747 745 743 734 730 728 743 728 728 724 727 729 727 716 723 731 718 725 728 736 745
796 791 786 780 775 770 765 761 758 756 755 757 758 759 760 764 756 745 748 749 752 755 754 751 747 748 746 745 729 747 726 730 727 724 728 732 721 727 723 720 712 712 719 734 743
796 791 785 779 774 768 764 760 757 754 754 755 757 759 761 754 743 747 747 750 754 756 752 749 747 745 750 736 735 741 733 728 725 724 724 722 728 727 724 712 709 711 718 730 738
795 790 784 779 773 768 764 761 758 757 756 756 757 759 760 749 749 748 751 753 753 753 749 747 743 738 744 741 741 730 732 731 723 723 723 729 724 720 717 712 713 712 716 719 732
794 789 784 778 773 768 764 762 760 759 758 758 758 759 751 750 749 751 752 752 751 749 746 747 744 745 734 741 727 732 743 724 726 726 725 721 732 729 718 713 714 712 713 717 724
794 788 783 778 772 768 765 763 761 760 760 759 759 761 747 750 750 752 750 750 751 749 749 747 747 743 740 729 734 739 728 737 724 725 723 722 742 723 714 714 717 714 713 718 719
793 787 782 777 771 767 765 763 762 761 760 759 760 756 748 751 750 749 749 747 749 749 749 749 745 742 734 748 739 732 741 742 736 724 729 729 738 718 713 716 720 716 714 718 721
793 787 780 775 770 766 764 762 761 760 759 760 757 753 746 744 743 746 747 747 746 745 748 747 744 746 739 739 757 748 747 737 747 730 727 729 733 723 720 715 720 721 719 721 723
792 786 779 773 768 766 763 762 762 759 753 740 734 738 735 739 745 745 746 747 744 745 751 744 752 749 733 736 739 744 748 748 737 731 737 737 737 730 724 719 725 728 725 723 723
790 784 778 772 767 765 762 751 758 760 748 738 739 739 738 737 742 740 745 747 747 752 741 751 752 732 736 740 745 745 749 743 733 733 737 731 736 729 726 728 727 731 731 726 730
790 783 776 770 766 764 761 761 761 759 753 739 733 733 737 738 735 739 740 738 744 747 746 748 737 736 743 744 749 744 747 743 748 733 726 733 738 736 727 725 727 730 735 735 736
789 783 776 769 769 762 758 762 760 759 752 749 740 732 734 731 739 727 734 733 739 744 741 739 732 744 744 745 741 747 734 743 745 749 752 729 761 736 729 728 727 728 731 738 742
788 782 775 771 767 758 763 762 760 758 773 730 733 725 723 734 726 736 731 732 743 743 743 746 745 745 749 747 740 749 737 742 742 747 744 737 751 739 727 736 730 728 735 739 742
785 781 774 772 768 764 763 762 760 769 768 741 726 735 737 732 729 729 735 731 726 739 737 738 728 738 737 737 740 737 744 739 737 738 758 734 745 740 734 734 731 732 738 741 742
783 778 774 772 761 764 763 758 765 764 722 740 737 726 731 735 734 735 743 748 751 764 755 737 739 731 736 748 737 742 745 761 761 753 754 735 752 741 730 731 731 735 739 740 740
779 774 770 768 766 764 760 757 774 728 731 719 724 724 734 726 730 735 738 745 733 741 746 752 761 739 733 742 748 747 753 772 793 775 758 732 762 744 732 730 734 738 738 738 739
777 769 767 763 764 763 758 763 745 726 723 734 731 739 736 730 735 737 738 734 728 735 758 750 752 733 736 737 744 751 766 738 767 754 762 744 731 724 727 733 735 737 738 740 745
779 768 757 760 761 760 757 759 736 728 732 733 743 730 740 736 744 738 737 729 738 736 731 740 766 734 739 740 739 751 741 769 751 786 786 751 751 748 743 739 737 741 741 743 747
778 758 752 758 759 754 755 735 731 732 734 738 736 733 733 731 734 731 734 733 733 737 732 733 750 746 741 750 752 751 754 753 749 760 778 780 758 728 738 736 742 744 741 744 745
773 759 752 755 757 738 739 735 753 733 734 734 734 730 733 731 740 739 741 736 731 734 748 738 746 758 747 733 736 744 755 753 765 774 756 762 761 717 730 735 737 739 741 745 747
770 753 749 750 752 737 733 741 738 739 736 737 739 734 730 739 754 739 737 735 739 743 751 744 756 769 758 741 732 756 748 748 751 759 778 783 764 717 724 729 732 739 738 744 748
777 754 743 744 735 740 737 742 748 740 738 739 736 738 741 746 736 746 744 740 744 743 760 757 761 768 772 755 746 758 752 748 755 770 762 757 750 739 733 735 736 739 740 745 747
772 753 751 743 740 738 736 736 743 749 741 740 745 742 743 752 746 752 741 740 748 761 758 756 772 761 754 749 749 751 752 750 756 753 764 753 752 742 736 740 742 744 745 745 746
774 763 754 748 751 750 756 745 742 737 743 747 749 739 741 750 744 750 742 745 748 745 757 749 770 766 769 755 754 758 749 748 749 747 747 746 748 727 734 737 741 741 740 744 746
783 778 774 759 750 750 740 744 745 736 742 740 741 747 750 746 739 741 739 740 745 754 757 760 765 772 777 756 755 766 748 746 742 735 739 750 736 730 738 742 745 744 745 746 745